Weather reports worldwide

Advertisment
Passo Dei Giovi, Italy (16119): temperature & dewpoint: 23.09.2020 03:00:00 - 29.09.2020 03:00:00 (CEST)Passo Dei Giovi, Italy (16119): wind speed: 23.09.2020 03:00:00 - 29.09.2020 03:00:00 (CEST)Passo Dei Giovi, Italy (16119): wind direction: 23.09.2020 03:00:00 - 29.09.2020 03:00:00 (CEST)Passo Dei Giovi, Italy (16119): reduced air pressure: 23.09.2020 03:00:00 - 29.09.2020 03:00:00 (CEST)Passo Dei Giovi, Italy (16119): visibility: 23.09.2020 03:00:00 - 29.09.2020 03:00:00 (CEST)
Date & Time tt [°C] td [°C] ff [km/h] ff [kn] dd ppp [hPa] vv [km]
29.09.2020 03:00:00 - - - - - - -
29.09.2020 02:00:00 - - - - - - -
29.09.2020 01:00:00 - - - - - - -
29.09.2020 00:00:00 - - - - - - -
28.09.2020 23:00:00 - - - - - - -
28.09.2020 22:00:00 - - - - - - -
28.09.2020 21:00:00 - - - - - - -
28.09.2020 20:00:00 12,2 11,4 11 6 S 1011,4 15
28.09.2020 19:00:00 - - - - - - -
28.09.2020 18:00:00 - - - - - - -
28.09.2020 17:00:00 15,2 10,4 21 11 S 1008,7 15
28.09.2020 16:00:00 - - - - - - -
28.09.2020 15:00:00 - - - - - - -
28.09.2020 14:00:00 16,4 7,9 22 12 S 1007,7 15
28.09.2020 13:00:00 - - - - - - -
28.09.2020 12:00:00 - - - - - - -
28.09.2020 11:00:00 13,4 6,0 15 8 S 1006,6 15
28.09.2020 10:00:00 - - - - - - -
28.09.2020 09:00:00 - - - - - - -
28.09.2020 08:00:00 4,8 4,5 16 9 N 1006,9 15
28.09.2020 07:00:00 - - - - - - -
28.09.2020 06:00:00 - - - - - - -
28.09.2020 05:00:00 - - - - - - -
28.09.2020 04:00:00 - - - - - - -
28.09.2020 03:00:00 - - - - - - -
28.09.2020 02:00:00 - - - - - - -
28.09.2020 01:00:00 - - - - - - -
28.09.2020 00:00:00 - - - - - - -
27.09.2020 23:00:00 - - - - - - -
27.09.2020 22:00:00 - - - - - - -
27.09.2020 21:00:00 - - - - - - -
27.09.2020 20:00:00 - - - - - - -
27.09.2020 19:00:00 - - - - - - -
27.09.2020 18:00:00 - - - - - - -
27.09.2020 17:00:00 - - - - - - -
27.09.2020 16:00:00 - - - - - - -
27.09.2020 15:00:00 - - - - - - -
27.09.2020 14:00:00 - - - - - - -
27.09.2020 13:00:00 - - - - - - -
27.09.2020 12:00:00 - - - - - - -
27.09.2020 11:00:00 - - - - - - -
27.09.2020 10:00:00 - - - - - - -
27.09.2020 09:00:00 - - - - - - -
27.09.2020 08:00:00 - - - - - - -
27.09.2020 07:00:00 - - - - - - -
27.09.2020 06:00:00 - - - - - - -
27.09.2020 05:00:00 - - - - - - -
27.09.2020 04:00:00 - - - - - - -
27.09.2020 03:00:00 - - - - - - -
27.09.2020 02:00:00 - - - - - - -
27.09.2020 01:00:00 - - - - - - -
27.09.2020 00:00:00 - - - - - - -
26.09.2020 23:00:00 - - - - - - -
26.09.2020 22:00:00 - - - - - - -
26.09.2020 21:00:00 - - - - - - -
26.09.2020 20:00:00 9,6 2,9 9 5 N 1001,0 15
26.09.2020 19:00:00 - - - - - - -
26.09.2020 18:00:00 15,0 -7,0 - - - - 10
26.09.2020 17:00:00 16,0 -12,4 13 7 N 999,2 15
26.09.2020 16:00:00 - - - - - - -
26.09.2020 15:00:00 - - - - - - -
26.09.2020 14:00:00 15,4 -8,8 8 4 N 999,7 15
26.09.2020 13:00:00 - - - - - - -
26.09.2020 12:00:00 - - - - - - -
26.09.2020 11:00:00 13,2 -6,9 16 9 N 999,5 15
26.09.2020 10:00:00 - - - - - - -
26.09.2020 09:00:00 - - - - - - -
26.09.2020 08:00:00 4,4 3,7 9 5 N 1000,4 15
26.09.2020 07:00:00 - - - - - - -
26.09.2020 06:00:00 - - - - - - -
26.09.2020 05:00:00 - - - - - - -
26.09.2020 04:00:00 - - - - - - -
26.09.2020 03:00:00 - - - - - - -
26.09.2020 02:00:00 - - - - - - -
26.09.2020 01:00:00 - - - - - - -
26.09.2020 00:00:00 - - - - - - -
25.09.2020 23:00:00 - - - - - - -
25.09.2020 22:00:00 - - - - - - -
25.09.2020 21:00:00 - - - - - - -
25.09.2020 20:00:00 10,2 8,3 8 4 N 996,9 15
25.09.2020 19:00:00 - - - - - - -
25.09.2020 18:00:00 - - - - - - -
25.09.2020 17:00:00 10,4 6,4 13 7 N 994,7 12
25.09.2020 16:00:00 10,0 9,0 - - - - 8
25.09.2020 15:00:00 - - - - - - -
25.09.2020 14:00:00 16,8 7,4 28 15 S 994,2 12
25.09.2020 13:00:00 - - - - - - -
25.09.2020 12:00:00 - - - - - - -
25.09.2020 11:00:00 16,8 13,5 22 12 S 995,9 12
25.09.2020 10:00:00 - - - - - - -
25.09.2020 09:00:00 - - - - - - -
25.09.2020 08:00:00 16,0 14,5 11 6 S 998,1 15
25.09.2020 07:00:00 - - - - - - -
25.09.2020 06:00:00 - - - - - - -
25.09.2020 05:00:00 - - - - - - -
25.09.2020 04:00:00 - - - - - - -
25.09.2020 03:00:00 - - - - - - -
25.09.2020 02:00:00 - - - - - - -
25.09.2020 01:00:00 - - - - - - -
25.09.2020 00:00:00 - - - - - - -
24.09.2020 23:00:00 - - - - - - -
24.09.2020 22:00:00 - - - - - - -
24.09.2020 21:00:00 - - - - - - -
24.09.2020 20:00:00 16,2 15,9 15 8 S 1007,9 8
24.09.2020 19:00:00 17,0 17,0 - - - - 3,0
24.09.2020 18:00:00 - - - - - - -
24.09.2020 17:00:00 19,2 15,7 22 12 S 1009,2 10
24.09.2020 16:00:00 - - - - - - -
24.09.2020 15:00:00 - - - - - - -
24.09.2020 14:00:00 20,8 16,4 24 13 S 1010,2 12
24.09.2020 13:00:00 - - - - - - -
24.09.2020 12:00:00 - - - - - - -
24.09.2020 11:00:00 19,6 16,1 9 5 S 1011,0 12
24.09.2020 10:00:00 - - - - - - -
24.09.2020 09:00:00 - - - - - - -
24.09.2020 08:00:00 16,8 15,2 9 5 S 1010,8 10
24.09.2020 07:00:00 - - - - - - -
24.09.2020 06:00:00 - - - - - - -
24.09.2020 05:00:00 - - - - - - -
24.09.2020 04:00:00 - - - - - - -
24.09.2020 03:00:00 - - - - - - -
24.09.2020 02:00:00 - - - - - - -
24.09.2020 01:00:00 - - - - - - -
24.09.2020 00:00:00 - - - - - - -
23.09.2020 23:00:00 - - - - - - -
23.09.2020 22:00:00 - - - - - - -
23.09.2020 21:00:00 - - - - - - -
23.09.2020 20:00:00 17,0 16,0 13 7 S 1010,3 15
23.09.2020 19:00:00 - - - - - - -
23.09.2020 18:00:00 18,0 15,0 - - - - 10
23.09.2020 17:00:00 18,6 14,3 16 9 S 1009,8 15
23.09.2020 16:00:00 - - - - - - -
23.09.2020 15:00:00 - - - - - - -
23.09.2020 14:00:00 18,6 16,0 11 6 S 1010,8 15
23.09.2020 13:00:00 - - - - - - -
23.09.2020 12:00:00 - - - - - - -
23.09.2020 11:00:00 15,8 14,8 5 3 S 1011,5 15
23.09.2020 10:00:00 16,0 15,0 - - - - 10
23.09.2020 09:00:00 - - - - - - -
23.09.2020 08:00:00 14,6 13,7 5 3 N 1011,6 12
23.09.2020 07:00:00 - - - - - - -
23.09.2020 06:00:00 - - - - - - -
23.09.2020 05:00:00 - - - - - - -
23.09.2020 04:00:00 - - - - - - -
23.09.2020 03:00:00 - - - - - - -

tt = temperature
td = dewpoint
ff = wind speed
dd = wind direction
ppp = reduced air pressure
vv = visibility

Next stations